Home > Time Zones > World Clock > Weather > Russia > Tula > Past weeks

Flag for Russia Weather past 2 weeks in Tula, Russia

Now
57 °F

Passing clouds.


Feels Like: 56 °F
Forecast: 51 / 72 °F
Wind: 6 mph from West

Location: Moscow / Domodedovo

Current Time: Aug 2, 2015 at 12:09:29 AM

Latest Report: Aug 1, 2015 at 11:30 PM


Visibility: N/A

Pressure: 30.07 "Hg

Humidity: 82%

Dew point: 52 °F

Location of TulaLocation

Historic Weather in Tula — Graph

°F

Tula temperature yesterday

Maximum temperature yesterday: 70 °F (at 2:30 PM)
Minimum temperature yesterday: 57 °F (at 2:30 AM)
Average temperature yesterday: 62 °F

Past Weeks' High & Low Weather Summary

 TemperatureHumidityPressure
High84 °F (Jul 27, 4:00 PM)100% (Jul 18, 4:00 AM)30.04 "Hg (Jul 18, 4:00 AM)
Low50 °F (Jul 19, 4:00 AM)38% (Jul 31, 2:30 PM)29.36 "Hg (Jul 21, 5:30 AM)
Average65 °F78%29.81 "Hg
* Reported Jul 17 11:00 PM — Aug 1 11:00 PM, Tula, Weather by CustomWeather, © 2015

Note: Actual official high and low records may vary slightly from our data, if they occured in-between our weather recording intervals... More about our weather records

Advertising

Tula weather history for previous 24 hours

 ConditionsComfort  
Time TempWeatherWind HumidityBarometerVisibility
11:00 PM
Sat, Aug 1
59 °FClear.6 mph77%30.04 "Hg10 mi
10:30 PM59 °FPassing clouds.6 mph77%30.04 "HgN/A
10:00 PM59 °FPassing clouds.6 mph77%30.04 "HgN/A
9:30 PM59 °FSunny.6 mph77%30.04 "Hg10 mi
9:00 PM61 °FSunny.8 mph72%30.01 "Hg10 mi
8:30 PM61 °FPassing clouds.10 mph77%30.01 "HgN/A
8:00 PM64 °FPassing clouds.13 mph68%30.01 "HgN/A
7:30 PM64 °FScattered clouds.13 mph73%29.98 "HgN/A
7:00 PM66 °FScattered clouds.13 mph68%29.98 "HgN/A
6:00 PM66 °FScattered clouds.10 mph73%29.95 "HgN/A
5:30 PM66 °FScattered clouds.10 mph73%29.95 "HgN/A
5:00 PM64 °FPartly sunny.13 mph78%29.95 "HgN/A
4:30 PM61 °FSprinkles. Partly sunny.10 mph88%29.92 "Hg6 mi
4:00 PM66 °FSprinkles. Partly sunny.15 mph64%29.92 "HgN/A
3:30 PM68 °FPartly sunny.15 mph56%29.92 "HgN/A
3:00 PM68 °FPartly sunny.17 mph64%29.92 "HgN/A
2:30 PM70 °FPartly sunny.13 mph57%29.92 "HgN/A
2:00 PM68 °FBroken clouds.10 mph64%29.92 "HgN/A
1:30 PM68 °FBroken clouds.13 mph64%29.89 "HgN/A
1:00 PM66 °FBroken clouds.8 mph68%29.89 "HgN/A
12:30 PM66 °FPassing clouds.8 mph68%29.89 "HgN/A
12:00 PM64 °FPassing clouds.8 mph83%29.92 "HgN/A
11:30 AM61 °FMore clouds than sun.6 mph88%29.92 "HgN/A
11:00 AM61 °FSprinkles. More clouds than sun.6 mph88%29.92 "HgN/A
10:30 AM61 °FMore clouds than sun.8 mph83%29.92 "HgN/A
10:00 AM59 °FSprinkles. More clouds than sun.6 mph94%29.92 "HgN/A
9:30 AM59 °FSprinkles. More clouds than sun.8 mph88%29.92 "HgN/A
9:00 AM59 °FPassing clouds.8 mph94%29.92 "HgN/A
8:30 AM57 °FSprinkles. Mostly cloudy.8 mph94%29.92 "HgN/A
8:00 AM57 °FSprinkles. Mostly cloudy.8 mph94%29.92 "Hg3 mi
7:30 AM59 °FLight rain. Clear.6 mph88%29.92 "HgN/A
7:00 AM59 °FPassing clouds.3 mph88%29.92 "HgN/A
6:00 AM57 °FPassing clouds.3 mph94%29.89 "HgN/A
5:30 AM59 °FClear.3 mph88%29.89 "Hg10 mi
5:00 AM59 °FClear.1 mph82%29.89 "Hg10 mi
4:30 AM59 °FPassing clouds.3 mph82%29.89 "HgN/A
4:00 AM59 °FClear.1 mph82%29.89 "Hg10 mi
3:30 AM59 °FClear.1 mph82%29.89 "Hg10 mi
3:00 AM57 °FClear.1 mph88%29.89 "Hg10 mi
2:30 AM57 °FClear.1 mph88%29.89 "Hg10 mi
2:00 AM61 °FClear.3 mph77%29.89 "Hg10 mi
1:30 AM61 °FClear.1 mph77%29.89 "Hg10 mi
12:30 AM61 °FPassing clouds.3 mph77%29.89 "HgN/A
12:00 AM61 °FPassing clouds.3 mph77%29.89 "HgN/A
Weather by CustomWeather, © 2015

See weather overviewHow to use our weather pages